This demonstration page uses our WeatherBlox Daily Observations layout. Learn more.

Left ArrowRight Arrow

36.19886, -115.1175

Hourly Observations for September 11, 2021

Temp ( °F °C ) Dew Point ( °F °C ) Humidity (%) Winds ( mph kmh ) Pressure ( in mb ) Visibility ( mi km ) Precip ( " mm )
12:53 am 00:53 Clear 89 31.7 51 10.6 27 27 S 7 11 29.88 1012 10 16 0.00 0.00
1:53 am 01:53 Clear 88 31.1 52 11.1 29 29 SSW 6 9 29.89 1012 10 16 0.00 0.00
2:53 am 02:53 Clear 86 30 52 11.1 31 31 S 9 15 29.90 1012 10 16 0.00 0.00
3:53 am 03:53 Clear 83 28.3 54 12.2 37 37 N 5 7 29.91 1013 10 16 0.00 0.00
4:53 am 04:53 Clear 82 27.8 55 12.8 40 40 WSW 3 6 29.91 1013 10 16 0.00 0.00
5:53 am 05:53 Clear 80 26.7 56 13.3 44 44 WNW 3 6 29.93 1014 10 16 0.00 0.00
6:53 am 06:53 Sunny 79 26.1 56 13.3 45 45 W 6 9 29.95 1014 10 16 0.00 0.00
7:53 am 07:53 Sunny 82 27.8 56 13.3 41 41 Calm 29.96 1015 10 16 0.00 0.00
8:53 am 08:53 Sunny 88 31.1 54 12.2 31 31 Calm 29.97 1015 10 16 0.00 0.00
9:53 am 09:53 Sunny 89 31.7 54 12.2 30 30 Calm 29.97 1015 10 16 0.00 0.00
10:53 am 10:53 Sunny 96 35.6 52 11.1 23 23 SE 9 15 29.96 1015 10 16 0.00 0.00
11:53 am 11:53 Sunny 99 37.2 50 10 19 19 ESE 8 13 29.93 1014 10 16 0.00 0.00
12:53 pm 12:53 Sunny 101 38.3 47 8.3 16 16 S 20 31 29.90 1013 10 16 0.00 0.00
1:53 pm 13:53 Sunny 103 39.4 44 6.7 13 13 S 20 31 29.88 1012 10 16 0.00 0.00
2:53 pm 14:53 Sunny 103 39.4 41 5 12 12 WSW 13 20 29.85 1011 10 16 0.00 0.00
3:00 pm 15:00 Sunny 103 39.4 41 5 12 12 SSW 15 24 29.68 1005 10 16 0.00 0.00
3:53 pm 15:53 Sunny 103 39.4 38 3.3 11 11 SSW 16 26 29.84 1011 10 16 0.00 0.00
4:53 pm 16:53 Sunny 102 38.9 41 5 12 12 W 15 24 29.83 1010 10 16 0.00 0.00
5:53 pm 17:53 Sunny 100 37.8 44 6.7 15 15 W 16 26 29.83 1010 10 16 0.00 0.00
6:53 pm 18:53 Sunny 98 36.7 45 7.2 16 16 W 10 17 29.83 1010 10 16 0.00 0.00
7:53 pm 19:53 Clear 97 36.1 46 7.8 17 17 SW 10 17 29.85 1011 10 16 0.00 0.00
8:53 pm 20:53 Clear 95 35 47 8.3 19 19 SSW 9 15 29.86 1011 10 16 0.00 0.00
9:53 pm 21:53 Clear 94 34.4 47 8.3 20 20 SW 7 11 29.86 1011 10 16 0.00 0.00
10:53 pm 22:53 Clear 92 33.3 48 8.9 22 22 W 6 9 29.86 1011 10 16 0.00 0.00
11:53 pm 23:53 Clear 88 31.1 48 8.9 25 25 W 5 7 29.87 1011 10 16 0.00 0.00

Powered by AerisWeather